This demonstration page uses our WeatherBlox Daily Observations layout. Learn more.

Left ArrowRight Arrow

38.80484, -77.04692

Hourly Observations for November 18, 2015

Temp ( °F °C ) Dew Point ( °F °C ) Humidity (%) Winds ( mph kmh ) Pressure ( in mb ) Visibility ( mi km ) Precip ( " mm )
12:52 am 00:52 Partly Cloudy 48 8.9 42 5.6 80 80 NE 6 9 30.45 1031 10 16 0.00 0.00
1:52 am 01:52 Partly Cloudy 47 8.3 42 5.6 83 83 NNE 7 11 30.45 1031 10 16 0.00 0.00
2:52 am 02:52 Partly Cloudy 47 8.3 42 5.6 83 83 NE 8 13 30.43 1031 10 16 0.00 0.00
3:52 am 03:52 Partly Cloudy 46 7.8 42 5.6 86 86 NNE 6 9 30.42 1030 10 16 0.00 0.00
4:24 am 04:24 Mostly Cloudy 46 8 43 6 87 87 NE 8 13 30.42 1030 10 16 0.00 0.00
4:52 am 04:52 Cloudy 47 8.3 43 6.1 86 86 NNE 9 15 30.42 1030 10 16 0.00 0.00
5:44 am 05:44 Mostly Cloudy 46 8 43 6 87 87 NE 7 11 30.42 1030 10 16 0.00 0.00
5:52 am 05:52 Mostly Cloudy 47 8.3 43 6.1 86 86 NE 5 7 30.41 1030 10 16 0.00 0.00
6:52 am 06:52 Mostly Cloudy 49 9.4 44 6.7 83 83 NNE 6 9 30.42 1030 10 16 0.00 0.00
7:52 am 07:52 Cloudy 50 10 45 7.2 83 83 NE 7 11 30.42 1030 10 16 0.00 0.00
8:11 am 08:11 Cloudy 50 10 46 7.8 86 86 NE 7 11 30.42 1030 10 16 0.00 0.00
8:52 am 08:52 Cloudy 52 11.1 47 8.3 83 83 NE 7 11 30.41 1030 10 16 0.00 0.00
9:19 am 09:19 Cloudy 53 11.7 47 8.3 80 80 VRB 7 11 30.39 1029 10 16 0.00 0.00
9:52 am 09:52 Mostly Cloudy 56 13.3 48 8.9 75 75 NE 5 7 30.40 1029 10 16 0.00 0.00
10:52 am 10:52 Cloudy 59 15 51 10.6 75 75 ENE 3 6 30.37 1029 10 16 0.00 0.00
11:37 am 11:37 Cloudy 63 17.2 54 12.2 73 73 ESE 9 15 30.33 1027 10 16 0.00 0.00
11:52 am 11:52 Cloudy 62 16.7 54 12.2 75 75 SE 8 13 30.33 1027 10 16 0.00 0.00
12:52 pm 12:52 Cloudy 65 18.3 55 12.8 70 70 SSE 12 19 30.30 1026 10 16 0.00 0.00
1:52 pm 13:52 Cloudy 65 18.3 55 12.8 70 70 SSE 14 22 30.29 1026 10 16 0.00 0.00
2:52 pm 14:52 Cloudy 65 18.3 54 12.2 68 68 SE 12 19 30.28 1025 10 16 0.00 0.00
3:52 pm 15:52 Cloudy 65 18.3 54 12.2 68 68 SSE 15 24 30.27 1025 10 16 0.00 0.00
4:52 pm 16:52 Cloudy 64 17.8 53 11.7 68 68 SE 10 17 30.28 1025 10 16 0.00 0.00
5:52 pm 17:52 Cloudy 64 17.8 54 12.2 70 70 SSE 13 20 30.27 1025 10 16 0.00 0.00
6:52 pm 18:52 Cloudy 64 17.8 54 12.2 70 70 SSE 10 17 30.27 1025 10 16 0.00 0.00
7:52 pm 19:52 Cloudy 63 17.2 54 12.2 73 73 SE 10 17 30.25 1024 10 16 0.00 0.00
8:52 pm 20:52 Cloudy 63 17.2 53 11.7 70 70 SSE 12 19 30.24 1024 10 16 0.00 0.00
9:52 pm 21:52 Cloudy 62 16.7 53 11.7 73 73 SE 12 19 30.22 1024 10 16 0.00 0.00
10:52 pm 22:52 Cloudy 62 16.7 53 11.7 73 73 SE 10 17 30.20 1023 10 16 0.00 0.00
11:52 pm 23:52 Cloudy 62 16.7 53 11.7 73 73 SE 8 13 30.19 1023 10 16 0.00 0.00

Powered by AerisWeather